Location: Port Stanley
(42.6641°N, 81.2156°W)
Time: 19:51:35
(UTC-04:00)

ISS - Pass Details

Date: 05 July 2019
Orbit: 409 x 418 km, 51.6° (Epoch: 23 July)

Event Time Altitude Azimuth Distance (km) Brightness Sun altitude
Exits shadow 04:17:45 19° 265° (W) 1,053 -2.1 -13.9°
Maximum altitude 04:19:50 46° 332° (NNW) 562 -3.0 -13.7°
Drops below altitude 10° 04:23:03 10° 48° (NE) 1,478 0.5 -13.3°
Sets 04:25:11 0° 54° (NE) 2,341 1.8 -13.0°
